Tracking 17264 objects as of 30-August-2015
HD Live streaming from Space Station

EXPRESS 3A

Track EXPRESS 3A now!
EXPRESS 3A is classified as:


NORAD ID: 26378
Int'l Code: 2000-031A
Perigee: 36,182.6 km
Apogee: 36,257.4 km
Inclination: 6.0 °
Period: 1,457.9 minutes
Semi major axis: 42591 km
RCS: 37.9323 m2 (large)
Launch date: June 24, 2000
Source: Commonwealth of Independent States (former USSR) (CIS)

Data transmission, TV and radio broadcasting, communications, Internet, video-conference, and others; digital format throughout Russia.
Your satellite tracking list
Your tracking list is empty





NASA's NSSDC Master Catalog

Two Line Element Set (TLE):
1 26378U 00031A   15240.77966708 -.00000162 +00000-0 +00000-0 0  9992
2 26378 005.9647 057.4455 0008787 130.5121 078.8816 00.98770201055251

Source of the keplerian elements: AFSPC

N2YO: 261